Wetterdaten: Freitag, 17.06.2011
Datum Zeit Temp. A. Feuchte A. Luftdruck Regen Wind Richtung Richtung Sonnenschein UV Solar Windben
17.06.2011 00:00 14,5 C 83 % 1012,2 hPa 0,0 mm 1,6 km/h (1 Bft) SW 225 0 min 0 UV-I 0 W/m 9,7 km/h (2 Bft)
17.06.2011 00:10 14,5 C 84 % 1012,1 hPa 0,0 mm 1,6 km/h (1 Bft) SW 225 0 min 0 UV-I 0 W/m 9,7 km/h (2 Bft)
17.06.2011 00:20 14,5 C 84 % 1012,2 hPa 0,0 mm 1,6 km/h (1 Bft) S-SW 202 0 min 0 UV-I 0 W/m 11,3 km/h (2 Bft)
17.06.2011 00:30 14,4 C 84 % 1012,3 hPa 0,0 mm 3,2 km/h (1 Bft) SW 225 0 min 0 UV-I 0 W/m 11,3 km/h (2 Bft)
17.06.2011 00:40 14,4 C 83 % 1012,2 hPa 0,0 mm 3,2 km/h (1 Bft) W 270 0 min 0 UV-I 0 W/m 16,1 km/h (3 Bft)
17.06.2011 00:50 14,3 C 83 % 1012,4 hPa 0,0 mm 3,2 km/h (1 Bft) S-SW 202 0 min 0 UV-I 0 W/m 12,9 km/h (3 Bft)
17.06.2011 01:00 14,3 C 83 % 1012,6 hPa 0,0 mm 3,2 km/h (1 Bft) S-SW 202 0 min 0 UV-I 0 W/m 16,1 km/h (3 Bft)
17.06.2011 01:10 14,1 C 82 % 1012,6 hPa 0,0 mm 6,4 km/h (2 Bft) W-SW 247 0 min 0 UV-I 0 W/m 20,9 km/h (4 Bft)
17.06.2011 01:20 13,8 C 82 % 1012,8 hPa 0,0 mm 6,4 km/h (2 Bft) W-SW 247 0 min 0 UV-I 0 W/m 24,1 km/h (4 Bft)
17.06.2011 01:30 13,6 C 81 % 1012,8 hPa 0,0 mm 6,4 km/h (2 Bft) W 270 0 min 0 UV-I 0 W/m 24,1 km/h (4 Bft)
17.06.2011 01:40 13,6 C 79 % 1013,1 hPa 0,0 mm 9,7 km/h (2 Bft) W-SW 247 0 min 0 UV-I 0 W/m 25,7 km/h (4 Bft)
17.06.2011 01:50 13,5 C 78 % 1013,1 hPa 0,0 mm 8,0 km/h (2 Bft) W-SW 247 0 min 0 UV-I 0 W/m 22,5 km/h (4 Bft)
17.06.2011 02:00 13,5 C 78 % 1013,2 hPa 0,0 mm 8,0 km/h (2 Bft) W-SW 247 0 min 0 UV-I 0 W/m 20,9 km/h (4 Bft)
17.06.2011 02:10 13,4 C 78 % 1013,2 hPa 0,0 mm 6,4 km/h (2 Bft) W 270 0 min 0 UV-I 0 W/m 17,7 km/h (3 Bft)
17.06.2011 02:20 13,4 C 77 % 1013,2 hPa 0,0 mm 6,4 km/h (2 Bft) W-SW 247 0 min 0 UV-I 0 W/m 17,7 km/h (3 Bft)
17.06.2011 02:30 13,3 C 77 % 1013,4 hPa 0,0 mm 6,4 km/h (2 Bft) W-SW 247 0 min 0 UV-I 0 W/m 19,3 km/h (3 Bft)
17.06.2011 02:40 13,2 C 77 % 1013,4 hPa 0,0 mm 6,4 km/h (2 Bft) W-SW 247 0 min 0 UV-I 0 W/m 20,9 km/h (4 Bft)
17.06.2011 02:50 13,0 C 76 % 1013,4 hPa 0,0 mm 4,8 km/h (1 Bft) SW 225 0 min 0 UV-I 0 W/m 17,7 km/h (3 Bft)
17.06.2011 03:00 12,9 C 76 % 1013,4 hPa 0,0 mm 4,8 km/h (1 Bft) W-SW 247 0 min 0 UV-I 0 W/m 17,7 km/h (3 Bft)
17.06.2011 03:10 12,8 C 76 % 1013,5 hPa 0,0 mm 3,2 km/h (1 Bft) W 270 0 min 0 UV-I 0 W/m 19,3 km/h (3 Bft)
17.06.2011 03:20 12,5 C 77 % 1013,6 hPa 0,0 mm 4,8 km/h (1 Bft) SW 225 0 min 0 UV-I 0 W/m 17,7 km/h (3 Bft)
17.06.2011 03:30 12,2 C 78 % 1013,6 hPa 0,0 mm 4,8 km/h (1 Bft) S-SW 202 0 min 0 UV-I 0 W/m 16,1 km/h (3 Bft)
17.06.2011 03:40 12,0 C 78 % 1013,5 hPa 0,0 mm 3,2 km/h (1 Bft) W-SW 247 0 min 0 UV-I 0 W/m 14,5 km/h (3 Bft)
17.06.2011 03:50 11,8 C 79 % 1013,5 hPa 0,0 mm 3,2 km/h (1 Bft) W-SW 247 0 min 0 UV-I 0 W/m 9,7 km/h (2 Bft)
17.06.2011 04:00 11,7 C 79 % 1013,5 hPa 0,0 mm 3,2 km/h (1 Bft) W 270 0 min 0 UV-I 0 W/m 16,1 km/h (3 Bft)
17.06.2011 04:10 11,6 C 78 % 1013,5 hPa 0,0 mm 3,2 km/h (1 Bft) W-SW 247 0 min 0 UV-I 0 W/m 16,1 km/h (3 Bft)
17.06.2011 04:20 11,4 C 78 % 1013,6 hPa 0,0 mm 3,2 km/h (1 Bft) W-SW 247 0 min 0 UV-I 0 W/m 9,7 km/h (2 Bft)
17.06.2011 04:30 11,3 C 79 % 1013,5 hPa 0,0 mm 1,6 km/h (1 Bft) W-SW 247 0 min 0 UV-I 0 W/m 9,7 km/h (2 Bft)
17.06.2011 04:40 11,2 C 79 % 1013,6 hPa 0,0 mm 1,6 km/h (1 Bft) SW 225 0 min 0 UV-I 0 W/m 9,7 km/h (2 Bft)
17.06.2011 04:50 11,0 C 79 % 1013,6 hPa 0,0 mm 1,6 km/h (1 Bft) W-SW 247 0 min 0 UV-I 0 W/m 8,0 km/h (2 Bft)
17.06.2011 05:00 10,9 C 79 % 1013,8 hPa 0,0 mm 3,2 km/h (1 Bft) W-SW 247 0 min 0 UV-I 0 W/m 11,3 km/h (2 Bft)
17.06.2011 05:10 10,8 C 79 % 1014,0 hPa 0,0 mm 1,6 km/h (1 Bft) SW 225 0 min 0 UV-I 0 W/m 8,0 km/h (2 Bft)
17.06.2011 05:20 10,8 C 79 % 1014,0 hPa 0,0 mm 1,6 km/h (1 Bft) W-SW 247 0 min 0 UV-I 7 W/m 9,7 km/h (2 Bft)
17.06.2011 05:30 10,8 C 78 % 1014,0 hPa 0,0 mm 3,2 km/h (1 Bft) S-SW 202 0 min 0 UV-I 11 W/m 16,1 km/h (3 Bft)
17.06.2011 05:40 10,9 C 77 % 1014,0 hPa 0,0 mm 3,2 km/h (1 Bft) S-SW 202 0 min 0 UV-I 14 W/m 16,1 km/h (3 Bft)
17.06.2011 05:50 11,0 C 77 % 1013,9 hPa 0,0 mm 3,2 km/h (1 Bft) W-SW 247 0 min 0 UV-I 18 W/m 9,7 km/h (2 Bft)
17.06.2011 06:00 11,0 C 77 % 1014,0 hPa 0,0 mm 3,2 km/h (1 Bft) SW 225 0 min 0 UV-I 21 W/m 14,5 km/h (3 Bft)
17.06.2011 06:10 11,0 C 77 % 1014,0 hPa 0,0 mm 3,2 km/h (1 Bft) SW 225 0 min 0 UV-I 25 W/m 9,7 km/h (2 Bft)
17.06.2011 06:20 11,1 C 77 % 1013,9 hPa 0,0 mm 3,2 km/h (1 Bft) S-SW 202 0 min 0 UV-I 76 W/m 11,3 km/h (2 Bft)
17.06.2011 06:30 11,2 C 76 % 1013,9 hPa 0,0 mm 3,2 km/h (1 Bft) S-SW 202 10 min 0 UV-I 95 W/m 17,7 km/h (3 Bft)
17.06.2011 06:40 11,4 C 76 % 1013,9 hPa 0,0 mm 3,2 km/h (1 Bft) SW 225 0 min 1 UV-I 97 W/m 11,3 km/h (2 Bft)
17.06.2011 06:50 11,6 C 75 % 1013,9 hPa 0,0 mm 3,2 km/h (1 Bft) W-SW 247 10 min 1 UV-I 125 W/m 9,7 km/h (2 Bft)
17.06.2011 07:00 11,8 C 75 % 1013,9 hPa 0,0 mm 3,2 km/h (1 Bft) W-SW 247 10 min 1 UV-I 153 W/m 11,3 km/h (2 Bft)
17.06.2011 07:10 12,1 C 74 % 1014,1 hPa 0,0 mm 4,8 km/h (1 Bft) W 270 10 min 1 UV-I 155 W/m 14,5 km/h (3 Bft)
17.06.2011 07:20 12,3 C 73 % 1014,2 hPa 0,0 mm 4,8 km/h (1 Bft) W 270 10 min 1 UV-I 199 W/m 16,1 km/h (3 Bft)
17.06.2011 07:30 12,5 C 73 % 1014,2 hPa 0,0 mm 3,2 km/h (1 Bft) SW 225 10 min 1 UV-I 227 W/m 14,5 km/h (3 Bft)
17.06.2011 07:40 12,8 C 72 % 1014,2 hPa 0,0 mm 3,2 km/h (1 Bft) W-SW 247 10 min 1 UV-I 227 W/m 11,3 km/h (2 Bft)
17.06.2011 07:50 12,9 C 71 % 1014,2 hPa 0,0 mm 6,4 km/h (2 Bft) W 270 10 min 1 UV-I 276 W/m 17,7 km/h (3 Bft)
17.06.2011 08:00 13,3 C 70 % 1014,3 hPa 0,0 mm 8,4 km/h (2 Bft) S-SW 203 10 min 1 UV-I 295 W/m 22,5 km/h (4 Bft)
17.06.2011 08:10 13,5 C 68 % 1014,2 hPa 0,0 mm 6,4 km/h (2 Bft) W-SW 247 10 min 1 UV-I 290 W/m 19,3 km/h (3 Bft)
17.06.2011 08:20 13,7 C 68 % 1014,3 hPa 0,0 mm 8,0 km/h (2 Bft) W-SW 247 10 min 2 UV-I 359 W/m 20,9 km/h (4 Bft)
17.06.2011 08:30 13,9 C 68 % 1014,4 hPa 0,0 mm 6,4 km/h (2 Bft) W 270 10 min 2 UV-I 399 W/m 20,9 km/h (4 Bft)
17.06.2011 08:40 14,2 C 66 % 1014,4 hPa 0,0 mm 8,0 km/h (2 Bft) W-SW 247 10 min 2 UV-I 427 W/m 24,1 km/h (4 Bft)
17.06.2011 08:50 14,4 C 65 % 1014,5 hPa 0,0 mm 6,4 km/h (2 Bft) S-SW 202 10 min 2 UV-I 457 W/m 19,3 km/h (3 Bft)
17.06.2011 09:00 14,6 C 65 % 1014,5 hPa 0,0 mm 8,0 km/h (2 Bft) W-SW 247 10 min 2 UV-I 485 W/m 22,5 km/h (4 Bft)
17.06.2011 09:10 14,8 C 63 % 1014,5 hPa 0,0 mm 8,0 km/h (2 Bft) SW 225 10 min 3 UV-I 510 W/m 20,9 km/h (4 Bft)
17.06.2011 09:20 15,1 C 63 % 1014,6 hPa 0,0 mm 6,4 km/h (2 Bft) W 270 10 min 3 UV-I 536 W/m 17,7 km/h (3 Bft)
17.06.2011 09:30 15,4 C 62 % 1014,5 hPa 0,0 mm 6,4 km/h (2 Bft) W 270 10 min 3 UV-I 563 W/m 19,3 km/h (3 Bft)
17.06.2011 09:40 15,7 C 61 % 1014,5 hPa 0,0 mm 6,4 km/h (2 Bft) SW 225 10 min 3 UV-I 591 W/m 19,3 km/h (3 Bft)
17.06.2011 09:50 15,7 C 60 % 1014,5 hPa 0,0 mm 8,0 km/h (2 Bft) SW 225 10 min 3 UV-I 621 W/m 20,9 km/h (4 Bft)
17.06.2011 10:00 15,8 C 59 % 1014,5 hPa 0,0 mm 8,0 km/h (2 Bft) S-SW 202 10 min 4 UV-I 649 W/m 24,1 km/h (4 Bft)
17.06.2011 10:10 16,2 C 58 % 1014,4 hPa 0,0 mm 8,0 km/h (2 Bft) S-SW 202 10 min 4 UV-I 700 W/m 25,7 km/h (4 Bft)
17.06.2011 10:20 16,2 C 57 % 1014,4 hPa 0,0 mm 8,0 km/h (2 Bft) W 270 10 min 4 UV-I 777 W/m 27,4 km/h (4 Bft)
17.06.2011 10:30 16,6 C 57 % 1014,4 hPa 0,0 mm 8,0 km/h (2 Bft) SW 225 10 min 5 UV-I 854 W/m 19,3 km/h (3 Bft)
17.06.2011 10:40 16,9 C 56 % 1014,4 hPa 0,0 mm 8,0 km/h (2 Bft) W-SW 247 10 min 5 UV-I 816 W/m 20,9 km/h (4 Bft)
17.06.2011 10:50 16,9 C 56 % 1014,3 hPa 0,0 mm 6,4 km/h (2 Bft) W-SW 247 10 min 5 UV-I 846 W/m 20,9 km/h (4 Bft)
17.06.2011 11:00 16,6 C 58 % 1014,2 hPa 0,0 mm 6,4 km/h (2 Bft) W-SW 247 0 min 5 UV-I 135 W/m 20,9 km/h (4 Bft)
17.06.2011 11:10 17,1 C 57 % 1014,0 hPa 0,0 mm 4,8 km/h (1 Bft) W 270 10 min 6 UV-I 895 W/m 19,3 km/h (3 Bft)
17.06.2011 11:20 17,6 C 55 % 1014,1 hPa 0,0 mm 8,0 km/h (2 Bft) W-SW 247 10 min 6 UV-I 868 W/m 20,9 km/h (4 Bft)
17.06.2011 11:30 17,9 C 53 % 1014,1 hPa 0,0 mm 6,4 km/h (2 Bft) W 270 10 min 6 UV-I 937 W/m 20,9 km/h (4 Bft)
17.06.2011 11:40 18,2 C 52 % 1014,2 hPa 0,0 mm 6,4 km/h (2 Bft) S-SW 202 10 min 6 UV-I 888 W/m 19,3 km/h (3 Bft)
17.06.2011 11:50 18,6 C 51 % 1014,0 hPa 0,0 mm 6,4 km/h (2 Bft) S-SW 202 10 min 6 UV-I 900 W/m 19,3 km/h (3 Bft)
17.06.2011 12:00 18,8 C 51 % 1013,8 hPa 0,0 mm 6,4 km/h (2 Bft) W 270 10 min 7 UV-I 916 W/m 20,9 km/h (4 Bft)
17.06.2011 12:10 18,8 C 52 % 1013,8 hPa 0,0 mm 6,4 km/h (2 Bft) W 270 10 min 7 UV-I 953 W/m 19,3 km/h (3 Bft)
17.06.2011 12:20 18,8 C 51 % 1013,6 hPa 0,0 mm 8,0 km/h (2 Bft) S-SW 202 10 min 7 UV-I 976 W/m 22,5 km/h (4 Bft)
17.06.2011 12:30 19,3 C 51 % 1013,4 hPa 0,0 mm 8,0 km/h (2 Bft) NW 315 10 min 7 UV-I 933 W/m 22,5 km/h (4 Bft)
17.06.2011 12:40 19,3 C 51 % 1013,3 hPa 0,0 mm 6,4 km/h (2 Bft) W 270 10 min 8 UV-I 1002 W/m 19,3 km/h (3 Bft)
17.06.2011 12:50 19,9 C 49 % 1013,3 hPa 0,0 mm 6,4 km/h (2 Bft) W 270 10 min 7 UV-I 990 W/m 17,7 km/h (3 Bft)
17.06.2011 13:00 19,3 C 50 % 1013,3 hPa 0,0 mm 6,4 km/h (2 Bft) W 270 10 min 7 UV-I 986 W/m 19,3 km/h (3 Bft)
17.06.2011 13:10 19,4 C 50 % 1013,3 hPa 0,0 mm 4,8 km/h (1 Bft) W 270 10 min 8 UV-I 1011 W/m 17,7 km/h (3 Bft)
17.06.2011 13:20 20,4 C 47 % 1012,9 hPa 0,0 mm 4,8 km/h (1 Bft) W 270 10 min 8 UV-I 990 W/m 19,3 km/h (3 Bft)
17.06.2011 13:30 20,3 C 46 % 1013,1 hPa 0,0 mm 6,4 km/h (2 Bft) W 270 10 min 8 UV-I 1005 W/m 20,9 km/h (4 Bft)
17.06.2011 13:40 20,4 C 45 % 1012,9 hPa 0,0 mm 8,0 km/h (2 Bft) W 270 10 min 8 UV-I 981 W/m 20,9 km/h (4 Bft)
17.06.2011 13:50 20,6 C 46 % 1012,6 hPa 0,0 mm 4,8 km/h (1 Bft) W 270 10 min 8 UV-I 1002 W/m 11,3 km/h (2 Bft)
17.06.2011 14:00 20,9 C 46 % 1012,6 hPa 0,0 mm 3,2 km/h (1 Bft) NW 315 10 min 8 UV-I 1027 W/m 16,1 km/h (3 Bft)
17.06.2011 14:10 21,0 C 44 % 1012,4 hPa 0,0 mm 4,8 km/h (1 Bft) W 270 10 min 7 UV-I 1060 W/m 16,1 km/h (3 Bft)
17.06.2011 14:20 21,4 C 43 % 1012,2 hPa 0,0 mm 3,2 km/h (1 Bft) S-SW 202 10 min 8 UV-I 1076 W/m 14,5 km/h (3 Bft)
17.06.2011 14:30 21,1 C 43 % 1012,0 hPa 0,0 mm 4,8 km/h (1 Bft) W 270 10 min 7 UV-I 1067 W/m 19,3 km/h (3 Bft)
17.06.2011 14:40 21,4 C 43 % 1011,8 hPa 0,0 mm 4,8 km/h (1 Bft) S-SW 202 10 min 7 UV-I 926 W/m 14,5 km/h (3 Bft)
17.06.2011 14:50 21,3 C 41 % 1011,7 hPa 0,0 mm 3,2 km/h (1 Bft) W 270 10 min 5 UV-I 707 W/m 14,5 km/h (3 Bft)
17.06.2011 15:00 21,1 C 44 % 1011,5 hPa 0,0 mm 3,2 km/h (1 Bft) W 270 10 min 4 UV-I 587 W/m 19,3 km/h (3 Bft)
17.06.2011 15:10 21,1 C 43 % 1011,5 hPa 0,0 mm 3,2 km/h (1 Bft) S-SW 202 10 min 4 UV-I 548 W/m 12,9 km/h (3 Bft)
17.06.2011 15:20 21,0 C 41 % 1011,6 hPa 0,0 mm 1,6 km/h (1 Bft) S-SW 202 10 min 3 UV-I 454 W/m 11,3 km/h (2 Bft)
17.06.2011 15:30 20,9 C 42 % 1011,4 hPa 0,0 mm 6,4 km/h (2 Bft) W 270 10 min 4 UV-I 513 W/m 16,1 km/h (3 Bft)
17.06.2011 15:40 20,7 C 44 % 1011,3 hPa 0,0 mm 3,2 km/h (1 Bft) W-SW 247 10 min 4 UV-I 538 W/m 14,5 km/h (3 Bft)
17.06.2011 15:50 20,9 C 44 % 1011,2 hPa 0,0 mm 3,2 km/h (1 Bft) W 270 10 min 4 UV-I 578 W/m 12,9 km/h (3 Bft)
17.06.2011 16:00 21,3 C 43 % 1011,0 hPa 0,0 mm 1,6 km/h (1 Bft) W 270 10 min 4 UV-I 673 W/m 8,0 km/h (2 Bft)
17.06.2011 16:10 21,6 C 41 % 1010,7 hPa 0,0 mm 1,6 km/h (1 Bft) NW 315 10 min 4 UV-I 570 W/m 9,7 km/h (2 Bft)
17.06.2011 16:20 21,3 C 43 % 1010,6 hPa 0,0 mm 1,6 km/h (1 Bft) N-NO 22 10 min 3 UV-I 464 W/m 8,0 km/h (2 Bft)
17.06.2011 16:30 21,4 C 44 % 1010,3 hPa 0,0 mm 1,6 km/h (1 Bft) N-NO 22 10 min 3 UV-I 559 W/m 8,0 km/h (2 Bft)
17.06.2011 16:40 21,5 C 43 % 1010,2 hPa 0,0 mm 1,6 km/h (1 Bft) N 360 10 min 3 UV-I 513 W/m 8,0 km/h (2 Bft)
17.06.2011 16:50 21,5 C 44 % 1010,0 hPa 0,0 mm 1,6 km/h (1 Bft) N 360 10 min 3 UV-I 492 W/m 9,7 km/h (2 Bft)
17.06.2011 17:00 21,6 C 43 % 1009,9 hPa 0,0 mm 1,6 km/h (1 Bft) N 360 10 min 3 UV-I 476 W/m 6,4 km/h (2 Bft)
17.06.2011 17:10 21,6 C 42 % 1009,7 hPa 0,0 mm 1,6 km/h (1 Bft) N-NO 22 10 min 2 UV-I 388 W/m 6,4 km/h (2 Bft)
17.06.2011 17:20 21,4 C 42 % 1009,6 hPa 0,0 mm 0,0 km/h (0 Bft) N-NO 22 0 min 2 UV-I 325 W/m 4,8 km/h (1 Bft)
17.06.2011 17:30 21,1 C 45 % 1009,4 hPa 0,0 mm 0,0 km/h (0 Bft) N-NO 22 0 min 2 UV-I 283 W/m 6,4 km/h (2 Bft)
17.06.2011 17:40 21,4 C 45 % 1009,1 hPa 0,0 mm 1,6 km/h (1 Bft) N-NO 22 0 min 2 UV-I 304 W/m 6,4 km/h (2 Bft)
17.06.2011 17:50 21,6 C 45 % 1008,9 hPa 0,0 mm 1,6 km/h (1 Bft) N-NO 22 10 min 2 UV-I 327 W/m 4,8 km/h (1 Bft)
17.06.2011 18:00 21,4 C 43 % 1009,0 hPa 0,0 mm 0,0 km/h (0 Bft) N-NO 22 0 min 1 UV-I 230 W/m 3,2 km/h (1 Bft)
17.06.2011 18:10 21,0 C 45 % 1008,8 hPa 0,0 mm 0,0 km/h (0 Bft) N-NO 22 0 min 1 UV-I 211 W/m 3,2 km/h (1 Bft)
17.06.2011 18:20 20,9 C 44 % 1008,6 hPa 0,0 mm 0,0 km/h (0 Bft) N-NO 22 0 min 1 UV-I 204 W/m 3,2 km/h (1 Bft)
17.06.2011 18:30 21,0 C 45 % 1008,7 hPa 0,0 mm 0,0 km/h (0 Bft) N-NO 22 0 min 1 UV-I 186 W/m 1,6 km/h (1 Bft)
17.06.2011 18:40 20,7 C 46 % 1008,6 hPa 0,0 mm 0,0 km/h (0 Bft) N-NO 22 0 min 1 UV-I 144 W/m 4,8 km/h (1 Bft)
17.06.2011 18:50 20,6 C 47 % 1008,2 hPa 0,0 mm 1,6 km/h (1 Bft) N-NO 22 0 min 1 UV-I 113 W/m 4,8 km/h (1 Bft)
17.06.2011 19:00 20,4 C 53 % 1008,1 hPa 0,0 mm 0,0 km/h (0 Bft) N-NO 22 0 min 1 UV-I 97 W/m 4,8 km/h (1 Bft)
17.06.2011 19:10 19,9 C 54 % 1007,8 hPa 0,0 mm 3,2 km/h (1 Bft) N 360 0 min 1 UV-I 132 W/m 12,9 km/h (3 Bft)
17.06.2011 19:20 19,9 C 49 % 1008,0 hPa 0,0 mm 0,0 km/h (0 Bft) N 360 0 min 1 UV-I 134 W/m 1,6 km/h (1 Bft)
17.06.2011 19:30 19,9 C 51 % 1007,9 hPa 0,0 mm 0,0 km/h (0 Bft) N 360 0 min 1 UV-I 105 W/m 1,6 km/h (1 Bft)
17.06.2011 19:40 19,9 C 52 % 1007,7 hPa 0,0 mm 0,0 km/h (0 Bft) N 360 0 min 0 UV-I 62 W/m 1,6 km/h (1 Bft)
17.06.2011 19:50 19,7 C 52 % 1007,7 hPa 0,0 mm 0,0 km/h (0 Bft) N 360 0 min 0 UV-I 25 W/m 1,6 km/h (1 Bft)
17.06.2011 20:00 19,4 C 57 % 1007,6 hPa 0,0 mm 0,0 km/h (0 Bft) N 360 0 min 0 UV-I 14 W/m 1,6 km/h (1 Bft)
17.06.2011 20:10 19,0 C 57 % 1007,5 hPa 0,0 mm 1,6 km/h (1 Bft) N 360 0 min 0 UV-I 16 W/m 8,0 km/h (2 Bft)
17.06.2011 20:20 18,6 C 58 % 1007,5 hPa 0,0 mm 1,6 km/h (1 Bft) W-NW 292 0 min 0 UV-I 35 W/m 8,0 km/h (2 Bft)
17.06.2011 20:30 18,2 C 60 % 1007,3 hPa 0,0 mm 3,2 km/h (1 Bft) N-NW 337 0 min 0 UV-I 39 W/m 14,5 km/h (3 Bft)
17.06.2011 20:40 17,8 C 62 % 1007,3 hPa 0,0 mm 3,2 km/h (1 Bft) W-NW 292 0 min 0 UV-I 32 W/m 11,3 km/h (2 Bft)
17.06.2011 20:50 17,7 C 61 % 1007,2 hPa 0,0 mm 1,6 km/h (1 Bft) W-NW 292 0 min 0 UV-I 25 W/m 9,7 km/h (2 Bft)
17.06.2011 21:00 17,6 C 63 % 1007,0 hPa 0,0 mm 1,6 km/h (1 Bft) W-NW 292 0 min 0 UV-I 9 W/m 6,4 km/h (2 Bft)
17.06.2011 21:10 17,3 C 64 % 1006,8 hPa 0,0 mm 0,0 km/h (0 Bft) W-NW 292 0 min 0 UV-I 11 W/m 3,2 km/h (1 Bft)
17.06.2011 21:20 17,1 C 66 % 1006,7 hPa 0,0 mm 3,2 km/h (1 Bft) NW 315 0 min 0 UV-I 5 W/m 8,0 km/h (2 Bft)
17.06.2011 21:30 16,9 C 66 % 1006,5 hPa 0,0 mm 1,6 km/h (1 Bft) N 360 0 min 0 UV-I 5 W/m 8,0 km/h (2 Bft)
17.06.2011 21:40 16,8 C 67 % 1006,3 hPa 0,0 mm 1,6 km/h (1 Bft) N-NO 22 0 min 0 UV-I 0 W/m 6,4 km/h (2 Bft)
17.06.2011 21:50 16,7 C 67 % 1006,3 hPa 0,0 mm 1,6 km/h (1 Bft) N-NO 22 0 min 0 UV-I 0 W/m 6,4 km/h (2 Bft)
17.06.2011 22:00 16,6 C 68 % 1006,1 hPa 0,0 mm 1,6 km/h (1 Bft) N-NO 22 0 min 0 UV-I 0 W/m 9,7 km/h (2 Bft)
17.06.2011 22:10 16,3 C 69 % 1005,8 hPa 0,0 mm 1,6 km/h (1 Bft) N-NO 22 0 min 0 UV-I 0 W/m 6,4 km/h (2 Bft)
17.06.2011 22:20 16,0 C 70 % 1005,7 hPa 0,0 mm 0,0 km/h (0 Bft) N-NO 22 0 min 0 UV-I 0 W/m 4,8 km/h (1 Bft)
17.06.2011 22:30 15,9 C 70 % 1005,4 hPa 0,0 mm 0,0 km/h (0 Bft) N-NO 22 0 min 0 UV-I 0 W/m 1,6 km/h (1 Bft)
17.06.2011 22:40 15,8 C 69 % 1005,4 hPa 0,0 mm 1,6 km/h (1 Bft) NO 45 0 min 0 UV-I 0 W/m 6,4 km/h (2 Bft)
17.06.2011 22:50 15,8 C 70 % 1005,4 hPa 0,0 mm 1,6 km/h (1 Bft) NO 45 0 min 0 UV-I 0 W/m 6,4 km/h (2 Bft)
17.06.2011 23:00 15,9 C 71 % 1005,4 hPa 0,0 mm 0,0 km/h (0 Bft) NO 45 0 min 0 UV-I 0 W/m 4,8 km/h (1 Bft)
17.06.2011 23:10 15,9 C 74 % 1005,0 hPa 0,0 mm 0,0 km/h (0 Bft) NO 45 0 min 0 UV-I 0 W/m 4,8 km/h (1 Bft)
17.06.2011 23:20 15,7 C 76 % 1005,2 hPa 0,0 mm 0,0 km/h (0 Bft) NO 45 0 min 0 UV-I 0 W/m 1,6 km/h (1 Bft)
17.06.2011 23:30 15,6 C 78 % 1005,2 hPa 0,0 mm 0,0 km/h (0 Bft) NO 45 0 min 0 UV-I 0 W/m 1,6 km/h (1 Bft)
17.06.2011 23:40 15,5 C 80 % 1004,9 hPa 0,3 mm 0,0 km/h (0 Bft) N 0 0 min 0 UV-I 0 W/m 0,0 km/h (0 Bft)
17.06.2011 23:50 15,2 C 82 % 1004,7 hPa 0,3 mm 0,0 km/h (0 Bft) NO 45 0 min 0 UV-I 0 W/m 1,6 km/h (1 Bft)
_ Min-Zeit 05:10 14:50 23:50 - 17:20 - - - - - 23:40
Minimum _ 10,7 C 41 % 1004,7 hPa - 0,0 km/h (0 Bft) - - - - - 0,0 km/h (0 Bft)
_ Max-Zeit 17:50 00:10 09:20 23:40 01:40 - - 06:30 13:20 14:20 10:20
Maximum _ 21,9 C 84 % 1014,6 hPa 0,3 mm 9,7 km/h
W-SW (2 Bft)
- - 10 min 8 UV-I 1076 W/m 27,4 km/h
W-SW (4 Bft)
Durchschnitt _ 16,5 C 63 % 1011,5 hPa #0,5 mm 3,7 km/h (1 Bft) W - #10:40 h 4 UV-I 455 W/m 13,2 km/h (3 Bft)